Location: Newark
(26.7500°S, 133.2500°E)
Time: 14:58:36
(UTC+00:00)

Envisat - Visible Passes

Search period start: 11 December 2019 00:00
Search period end: 21 December 2019 00:00
Orbit: 764 x 766 km, 98.1° (Epoch: 11 December)

Date Brightness Start Highest point End Pass type
(mag) Time Alt. Az. Time Alt. Az. Time Alt. Az.
12 Dec 6.1 11:03:36 10° SW 11:06:18 15° WSW 11:09:00 10° W visible
13 Dec 4.9 10:25:14 10° S 10:29:52 35° WSW 10:34:28 10° NW visible
15 Dec 5.9 10:51:37 10° SSW 10:55:08 19° WSW 10:58:39 10° WNW visible
16 Dec 4.3 10:13:45 10° S 10:18:39 46° WSW 10:23:30 10° NNW visible
18 Dec 5.6 10:39:52 10° SSW 10:43:58 25° WSW 10:48:02 10° NW visible
20 Dec 6.2 11:06:55 10° SW 11:09:11 13° WSW 11:11:27 10° W visible
